Rotterdam, Netherlands

2:03 AM CET on February 28, 2017 (GMT +0100)
Rotterdam

Weather History for EHRD - April, 2012

Change the Weather History Date:

Wednesday, April 4, 2012

  Actual Average Record
Temperature  
Mean Temperature 42 °F -  
Max Temperature 48 °F 56 °F 64 °F (2002)
Min Temperature 37 °F 41 °F 30 °F (2003)
Degree Days  
Heating Degree Days 22    
Moisture  
Dew Point 42 °F    
Average Humidity 90    
Maximum Humidity 100    
Minimum Humidity 76    
Precipitation  
Precipitation 0.03 in - - ()
Sea Level Pressure  
Sea Level Pressure 29.74 in    
Wind  
Wind Speed 5 mph ()    
Max Wind Speed 12 mph    
Max Gust Speed -    
Visibility 2.4 miles    
Events Rain    
Averages and records for this station are not official NWS values.
T = Trace of Precipitation, MM = Missing Value Source: Averaged Metar Reports

Daily Weather History Graph

Daily Weather History Graph

Search for Another Location

Airport or City:

Trip Planner

Search our weather history database for the weather conditions in past years. The results will help you decide how hot, cold, wet, or windy it might be!

Date:

Astronomy

Apr. 04, 2012 Rise Set
Actual Time 7:09 AM CEST 8:21 PM CEST
Civil Twilight 6:35 AM CEST 8:56 PM CEST
Nautical Twilight 5:53 AM CEST 9:38 PM CEST
Astronomical Twilight 5:07 AM CEST 10:24 PM CEST
Moon 5:43 PM CEST (4/4) 5:40 AM CEST (4/4)
Length of Visible Light 14h 21m
Length of Day
13h 12m
Waxing Gibbous, 92% of the Moon is Illuminated
Apr 4
Waxing Gibbous
Apr 6
Full
Apr 13
Last Quarter
Apr 21
New
Apr 29
First Quarter

Hourly Weather History & Observations

Time (CEST) Temp. Windchill Dew Point Humidity Pressure Visibility Wind Dir Wind Speed Gust Speed Precip Events Conditions
12:25 AM 48.2 °F - 41.0 °F 76% 29.59 in 5.0 mi NE 3.5 mph - N/A   Light Drizzle
12:55 AM 48.2 °F - 41.0 °F 76% 29.59 in 4.3 mi NE 3.5 mph - N/A   Unknown
1:25 AM 46.4 °F 44.3 °F 41.0 °F 81% 29.59 in 3.7 mi NE 4.6 mph - N/A   Unknown
1:55 AM 44.6 °F 43.1 °F 41.0 °F 87% 29.59 in 3.1 mi NNW 3.5 mph - N/A   Mist
2:00 AM 43 °F - 41 °F 88% 29.61 in 3 mi NNW 4.5 mph - -   Mist
2:25 AM 42.8 °F 41.1 °F 39.2 °F 87% 29.59 in 3.1 mi ENE 3.5 mph - N/A   Mist
2:55 AM 41.0 °F - 39.2 °F 93% 29.59 in - Variable 1.2 mph - N/A   Mist
3:25 AM 39.2 °F 37.0 °F 39.2 °F 100% 29.59 in - NW 3.5 mph - N/A   Mist
3:55 AM 39.2 °F 37.0 °F 37.4 °F 93% 29.59 in 1.7 mi NW 3.5 mph - N/A   Mist
4:25 AM 41.0 °F - 39.2 °F 93% 29.59 in 2.2 mi Variable 1.2 mph - N/A   Partly Cloudy
4:55 AM 41.0 °F - 39.2 °F 93% 29.59 in - ENE 2.3 mph - N/A   Mist
5:00 AM 42 °F - 40 °F 91% 29.62 in 2 mi ENE 2.2 mph - -   Mist
5:25 AM 42.8 °F - 41.0 °F 93% 29.59 in 2.5 mi Variable 2.3 mph - N/A   Mist
5:55 AM 41.0 °F - 39.2 °F 93% 29.62 in - Variable 2.3 mph - N/A   Mist
6:25 AM 42.8 °F 38.6 °F 41.0 °F 93% 29.62 in - ENE 6.9 mph - N/A   Mist
6:55 AM 42.8 °F - 41.0 °F 93% 29.62 in 1.9 mi North 2.3 mph - N/A   Mist
7:25 AM 42.8 °F - 41.0 °F 93% 29.62 in 1.8 mi North 2.3 mph - N/A   Mist
7:55 AM 44.6 °F 43.1 °F 42.8 °F 93% 29.65 in 1.7 mi ENE 3.5 mph - N/A   Mist
8:00 AM 45 °F - 43 °F 91% 29.67 in 2 mi ENE 4.5 mph - -   Mist
8:25 AM 44.6 °F 40.7 °F 42.8 °F 93% 29.65 in 1.9 mi ENE 6.9 mph - N/A   Mostly Cloudy
8:55 AM 46.4 °F 41.9 °F 44.6 °F 93% 29.68 in - ENE 9.2 mph - N/A   Partly Cloudy
9:25 AM 44.6 °F 39.2 °F 42.8 °F 93% 29.68 in - ENE 10.4 mph - N/A   Partly Cloudy
9:55 AM 44.6 °F 40.7 °F 42.8 °F 93% 29.71 in - ENE 6.9 mph - N/A Rain Light Rain
10:25 AM 44.6 °F 40.7 °F 42.8 °F 93% 29.71 in - NE 6.9 mph - N/A   Partly Cloudy
10:55 AM 46.4 °F 41.9 °F 42.8 °F 87% 29.74 in - ENE 9.2 mph - N/A   Overcast
11:00 AM 46 °F - 43 °F 84% 29.75 in 2 mi ENE 6.7 mph - - Rain Drizzle
11:25 AM 46.4 °F 42.9 °F 42.8 °F 87% 29.74 in - ENE 6.9 mph - N/A   Overcast
11:55 AM 46.4 °F 42.4 °F 42.8 °F 87% 29.77 in - NE 8.1 mph - N/A   Overcast
12:25 PM 46.4 °F 42.4 °F 42.8 °F 87% 29.77 in - ENE 8.1 mph - N/A   Overcast
12:55 PM 46.4 °F 42.4 °F 42.8 °F 87% 29.77 in - ENE 8.1 mph - N/A   Overcast
1:25 PM 46.4 °F 42.9 °F 44.6 °F 93% 29.80 in - ENE 6.9 mph - N/A   Overcast
1:55 PM 46.4 °F 42.9 °F 42.8 °F 87% 29.80 in - ENE 6.9 mph - N/A   Overcast
2:00 PM 47 °F - 43 °F 80% 29.81 in 3 mi ENE 6.7 mph - -   Mist
2:25 PM 48.2 °F - 42.8 °F 82% 29.80 in - NE 4.6 mph - N/A   Overcast
2:55 PM 48.2 °F - 42.8 °F 82% 29.80 in - NE 5.8 mph - N/A   Overcast
3:25 PM 48.2 °F - 44.6 °F 87% 29.80 in - ENE 4.6 mph - N/A   Overcast
3:55 PM 48.2 °F - 44.6 °F 87% 29.83 in - ENE 5.8 mph - N/A   Overcast
4:25 PM 48.2 °F - 44.6 °F 87% 29.83 in - NE 9.2 mph - N/A Rain Light Rain
4:55 PM 46.4 °F 41.9 °F 44.6 °F 93% 29.83 in - NE 9.2 mph - N/A Rain Light Rain
5:25 PM 46.4 °F 42.4 °F 44.6 °F 93% 29.83 in 1.6 mi NE 8.1 mph - N/A Rain Light Rain Showers
5:55 PM 46.4 °F 42.4 °F 44.6 °F 93% 29.83 in - NNE 8.1 mph - N/A   Light Drizzle
6:25 PM 46.4 °F 42.4 °F 44.6 °F 93% 29.83 in 1.7 mi NNE 8.1 mph - N/A Rain Light Rain
6:55 PM 46.4 °F 43.5 °F 44.6 °F 93% 29.86 in 1.6 mi NNE 5.8 mph - N/A Rain Light Rain
7:25 PM 46.4 °F 43.5 °F 44.6 °F 93% 29.86 in 1.6 mi NNE 5.8 mph - N/A   Scattered Clouds
7:55 PM 46.4 °F 42.9 °F 44.6 °F 93% 29.86 in 1.7 mi NE 6.9 mph - N/A   Overcast
8:00 PM 46 °F - 44 °F 88% 29.88 in 2 mi NE 6.7 mph - - Rain Rain
8:25 PM 46.4 °F 42.4 °F 44.6 °F 93% 29.89 in 1.7 mi NE 8.1 mph - N/A   Overcast
8:55 PM 46.4 °F 42.4 °F 44.6 °F 93% 29.89 in - NE 8.1 mph - N/A Rain Light Rain
9:25 PM 46.4 °F 42.4 °F 42.8 °F 87% 29.92 in - NE 8.1 mph - N/A Rain Light Rain
9:55 PM 46.4 °F 41.9 °F 44.6 °F 93% 29.92 in 1.7 mi NE 9.2 mph - N/A Rain Rain
10:25 PM 46.4 °F 41.5 °F 44.6 °F 93% 29.92 in 1.9 mi NE 10.4 mph - N/A Rain Rain
10:55 PM 46.4 °F 41.5 °F 42.8 °F 87% 29.95 in 3.1 mi NE 10.4 mph - N/A   Overcast
11:25 PM 44.6 °F 38.8 °F 42.8 °F 93% 29.95 in 3.7 mi NE 11.5 mph - N/A   Overcast
11:55 PM 44.6 °F 39.2 °F 41.0 °F 87% 29.95 in 3.7 mi NE 10.4 mph - N/A   Overcast